Time,TemperatureF,DewpointF,PressureIn,WindDirection,WindDirectionDegrees,WindSpeedMPH,WindSpeedGustMPH,Humidity,HourlyPrecipIn,Conditions,Clouds,dailyrainin,SoftwareType,DateUTC
2013-01-15 00:07:00,45.3,45.0,29.97,North,0,3.2,-999.0,99,-99.99,,,0.00,Acu-Link.com,2013-01-15 06:07:00,
2013-01-15 00:23:00,45.3,45.0,29.97,WSW,247,2.7,-999.0,99,-99.99,,,0.00,Acu-Link.com,2013-01-15 06:23:00,
2013-01-15 00:38:00,45.3,45.0,29.97,NNE,22,4.7,-999.0,99,-99.99,,,0.00,Acu-Link.com,2013-01-15 06:38:00,
2013-01-15 00:53:00,45.3,45.0,29.96,NNW,337,2.2,-999.0,99,-99.99,,,0.00,Acu-Link.com,2013-01-15 06:53:00,
2013-01-15 01:08:00,45.3,45.0,29.97,NNW,337,2.2,-999.0,99,-99.99,,,0.00,Acu-Link.com,2013-01-15 07:08:00,
2013-01-15 01:23:00,45.3,45.0,29.96,WNW,292,6.8,-999.0,99,-99.99,,,0.00,Acu-Link.com,2013-01-15 07:23:00,
2013-01-15 01:38:00,45.0,44.7,29.96,NNW,337,5.3,-999.0,99,-99.99,,,0.00,Acu-Link.com,2013-01-15 07:38:00,
2013-01-15 01:53:00,45.0,44.7,29.96,NW,315,4.7,-999.0,99,-99.99,,,0.00,Acu-Link.com,2013-01-15 07:53:00,
2013-01-15 02:08:00,45.0,44.7,29.96,NW,315,2.2,-999.0,99,-99.99,,,0.01,Acu-Link.com,2013-01-15 08:08:00,
2013-01-15 02:23:00,45.0,44.7,29.97,NW,315,4.2,-999.0,99,-99.99,,,0.02,Acu-Link.com,2013-01-15 08:23:00,
2013-01-15 02:39:00,45.0,44.7,29.96,SW,225,2.7,-999.0,99,-99.99,,,0.04,Acu-Link.com,2013-01-15 08:39:00,
2013-01-15 02:54:00,45.0,44.7,29.97,NW,315,3.7,-999.0,99,-99.99,,,0.05,Acu-Link.com,2013-01-15 08:54:00,
2013-01-15 03:14:00,45.0,44.7,29.96,North,0,2.7,-999.0,99,-99.99,,,0.06,Acu-Link.com,2013-01-15 09:14:00,
2013-01-15 03:29:00,45.0,44.7,29.96,NW,315,5.8,-999.0,99,-99.99,,,0.08,Acu-Link.com,2013-01-15 09:29:00,
2013-01-15 03:44:00,45.0,44.7,29.96,West,270,3.7,-999.0,99,-99.99,,,0.09,Acu-Link.com,2013-01-15 09:44:00,
2013-01-15 03:59:00,45.0,44.7,29.97,North,0,3.7,-999.0,99,-99.99,,,0.09,Acu-Link.com,2013-01-15 09:59:00,
2013-01-15 04:14:00,45.0,44.7,29.96,West,270,7.3,-999.0,99,-99.99,,,0.10,Acu-Link.com,2013-01-15 10:14:00,
2013-01-15 04:29:00,45.0,44.7,29.95,West,270,3.2,-999.0,99,-99.99,,,0.12,Acu-Link.com,2013-01-15 10:29:00,
2013-01-15 04:44:00,45.0,44.7,29.95,WNW,292,6.3,-999.0,99,-99.99,,,0.13,Acu-Link.com,2013-01-15 10:44:00,
2013-01-15 04:59:00,45.0,44.7,29.95,NNW,337,5.3,-999.0,99,-99.99,,,0.13,Acu-Link.com,2013-01-15 10:59:00,
2013-01-15 05:15:00,44.8,44.5,29.96,NNE,22,6.8,-999.0,99,-99.99,,,0.14,Acu-Link.com,2013-01-15 11:15:00,
2013-01-15 05:30:00,44.6,44.3,29.95,NNW,337,6.3,-999.0,99,-99.99,,,0.15,Acu-Link.com,2013-01-15 11:30:00,
2013-01-15 05:45:00,44.4,44.1,29.96,WSW,247,3.7,-999.0,99,-99.99,,,0.16,Acu-Link.com,2013-01-15 11:45:00,
2013-01-15 06:00:00,44.4,44.1,29.96,WNW,292,4.7,-999.0,99,-99.99,,,0.16,Acu-Link.com,2013-01-15 12:00:00,
2013-01-15 06:15:00,44.2,43.9,29.97,WNW,292,4.7,-999.0,99,-99.99,,,0.16,Acu-Link.com,2013-01-15 12:15:00,
2013-01-15 06:30:00,44.2,43.9,29.96,WSW,247,6.8,-999.0,99,-99.99,,,0.17,Acu-Link.com,2013-01-15 12:30:00,
2013-01-15 06:45:00,44.2,43.9,29.96,NW,315,4.2,-999.0,99,-99.99,,,0.17,Acu-Link.com,2013-01-15 12:45:00,
2013-01-15 07:00:00,44.2,43.9,29.96,NNW,337,4.7,-999.0,99,-99.99,,,0.18,Acu-Link.com,2013-01-15 13:00:00,
2013-01-15 07:15:00,44.4,44.1,29.98,WNW,292,2.7,-999.0,99,-99.99,,,0.18,Acu-Link.com,2013-01-15 13:15:00,
2013-01-15 07:31:00,44.2,43.9,29.98,NNW,337,3.2,-999.0,99,-99.99,,,0.18,Acu-Link.com,2013-01-15 13:31:00,
2013-01-15 07:46:00,44.2,43.9,29.98,ESE,112,4.2,-999.0,99,-99.99,,,0.18,Acu-Link.com,2013-01-15 13:46:00,
2013-01-15 08:01:00,44.1,43.8,29.99,NNW,337,6.3,-999.0,99,-99.99,,,0.19,Acu-Link.com,2013-01-15 14:01:00,
2013-01-15 08:16:00,44.1,43.8,29.99,NW,315,3.7,-999.0,99,-99.99,,,0.19,Acu-Link.com,2013-01-15 14:16:00,
2013-01-15 08:31:00,43.9,43.6,29.99,WNW,292,4.7,-999.0,99,-99.99,,,0.19,Acu-Link.com,2013-01-15 14:31:00,
2013-01-15 08:46:00,43.9,43.6,29.97,North,0,3.7,-999.0,99,-99.99,,,0.19,Acu-Link.com,2013-01-15 14:46:00,
2013-01-15 09:01:00,43.9,43.6,29.98,North,0,5.3,-999.0,99,-99.99,,,0.19,Acu-Link.com,2013-01-15 15:01:00,
2013-01-15 09:16:00,43.9,43.6,29.98,NNW,337,4.7,-999.0,99,-99.99,,,0.19,Acu-Link.com,2013-01-15 15:16:00,
2013-01-15 09:31:00,43.9,43.6,29.99,NNW,337,3.7,-999.0,99,-99.99,,,0.19,Acu-Link.com,2013-01-15 15:31:00,
2013-01-15 09:47:00,43.9,43.6,30.00,WNW,292,4.2,-999.0,99,-99.99,,,0.19,Acu-Link.com,2013-01-15 15:47:00,
2013-01-15 10:02:00,43.9,43.6,30.02,WNW,292,4.7,-999.0,99,-99.99,,,0.19,Acu-Link.com,2013-01-15 16:02:00,
2013-01-15 10:17:00,43.9,43.6,30.02,WNW,292,7.8,-999.0,99,-99.99,,,0.19,Acu-Link.com,2013-01-15 16:17:00,
2013-01-15 10:32:00,43.7,43.4,30.00,WNW,292,4.7,-999.0,99,-99.99,,,0.19,Acu-Link.com,2013-01-15 16:32:00,
2013-01-15 10:47:00,43.5,43.2,30.01,WNW,292,5.3,-999.0,99,-99.99,,,0.19,Acu-Link.com,2013-01-15 16:47:00,
2013-01-15 11:02:00,43.5,43.2,30.00,North,0,8.9,-999.0,99,-99.99,,,0.19,Acu-Link.com,2013-01-15 17:02:00,
2013-01-15 11:17:00,43.5,43.2,30.00,NW,315,4.7,-999.0,99,-99.99,,,0.20,Acu-Link.com,2013-01-15 17:17:00,
2013-01-15 11:32:00,43.7,43.4,29.99,NNW,337,2.7,-999.0,99,-99.99,,,0.20,Acu-Link.com,2013-01-15 17:32:00,
2013-01-15 11:47:00,44.1,43.8,29.98,West,270,5.3,-999.0,99,-99.99,,,0.20,Acu-Link.com,2013-01-15 17:47:00,
2013-01-15 12:03:00,43.9,43.6,30.00,NW,315,3.2,-999.0,99,-99.99,,,0.20,Acu-Link.com,2013-01-15 18:03:00,
2013-01-15 12:18:00,43.9,43.6,29.97,SW,225,5.3,-999.0,99,-99.99,,,0.20,Acu-Link.com,2013-01-15 18:18:00,
2013-01-15 12:33:00,43.9,43.6,29.98,WNW,292,4.2,-999.0,99,-99.99,,,0.20,Acu-Link.com,2013-01-15 18:33:00,
2013-01-15 12:48:00,43.9,43.6,29.97,NNW,337,4.7,-999.0,99,-99.99,,,0.20,Acu-Link.com,2013-01-15 18:48:00,
2013-01-15 13:03:00,43.7,43.4,29.96,WNW,292,5.3,-999.0,99,-99.99,,,0.20,Acu-Link.com,2013-01-15 19:03:00,
2013-01-15 13:18:00,43.5,43.2,29.97,WNW,292,3.7,-999.0,99,-99.99,,,0.20,Acu-Link.com,2013-01-15 19:18:00,
2013-01-15 13:33:00,43.3,43.0,29.96,West,270,4.7,-999.0,99,-99.99,,,0.20,Acu-Link.com,2013-01-15 19:33:00,
2013-01-15 13:48:00,43.5,43.2,29.96,NNE,22,5.3,-999.0,99,-99.99,,,0.20,Acu-Link.com,2013-01-15 19:48:00,
2013-01-15 14:03:00,43.3,43.0,29.96,North,0,6.3,-999.0,99,-99.99,,,0.20,Acu-Link.com,2013-01-15 20:03:00,
2013-01-15 14:19:00,43.2,42.9,29.95,NE,45,5.8,-999.0,99,-99.99,,,0.20,Acu-Link.com,2013-01-15 20:19:00,
2013-01-15 14:34:00,42.8,42.3,29.95,NW,315,4.7,-999.0,98,-99.99,,,0.20,Acu-Link.com,2013-01-15 20:34:00,
2013-01-15 14:49:00,42.8,42.0,29.97,NW,315,7.8,-999.0,97,-99.99,,,0.20,Acu-Link.com,2013-01-15 20:49:00,
2013-01-15 15:04:00,42.4,41.3,29.96,WNW,292,6.3,-999.0,96,-99.99,,,0.20,Acu-Link.com,2013-01-15 21:04:00,
2013-01-15 15:19:00,42.6,40.7,29.98,West,270,4.2,-999.0,93,-99.99,,,0.20,Acu-Link.com,2013-01-15 21:19:00,
2013-01-15 15:34:00,42.8,40.9,29.98,NNW,337,7.3,-999.0,93,-99.99,,,0.20,Acu-Link.com,2013-01-15 21:34:00,
2013-01-15 15:50:00,42.8,40.6,29.97,West,270,4.2,-999.0,92,-99.99,,,0.20,Acu-Link.com,2013-01-15 21:50:00,
2013-01-15 16:05:00,42.8,39.8,29.98,West,270,5.8,-999.0,89,-99.99,,,0.20,Acu-Link.com,2013-01-15 22:05:00,
2013-01-15 16:20:00,43.0,40.3,29.99,NW,315,6.3,-999.0,90,-99.99,,,0.20,Acu-Link.com,2013-01-15 22:20:00,
2013-01-15 16:35:00,43.0,40.0,30.00,WNW,292,6.3,-999.0,89,-99.99,,,0.20,Acu-Link.com,2013-01-15 22:35:00,
2013-01-15 16:51:00,43.0,40.0,30.00,NW,315,6.8,-999.0,89,-99.99,,,0.20,Acu-Link.com,2013-01-15 22:51:00,
2013-01-15 17:06:00,42.8,39.5,30.01,NW,315,8.9,-999.0,88,-99.99,,,0.20,Acu-Link.com,2013-01-15 23:06:00,
2013-01-15 17:21:00,42.8,39.8,30.02,WNW,292,7.3,-999.0,89,-99.99,,,0.20,Acu-Link.com,2013-01-15 23:21:00,
2013-01-15 17:36:00,42.6,39.3,30.01,SW,225,2.7,-999.0,88,-99.99,,,0.20,Acu-Link.com,2013-01-15 23:36:00,
2013-01-15 17:51:00,42.6,39.3,30.03,WNW,292,7.8,-999.0,88,-99.99,,,0.20,Acu-Link.com,2013-01-15 23:51:00,
2013-01-15 18:06:00,42.4,38.8,30.03,NW,315,6.8,-999.0,87,-99.99,,,0.20,Acu-Link.com,2013-01-16 00:06:00,
2013-01-15 18:22:00,42.3,38.7,30.05,WNW,292,9.4,-999.0,87,-99.99,,,0.20,Acu-Link.com,2013-01-16 00:22:00,
2013-01-15 18:37:00,42.3,38.7,30.04,WSW,247,7.3,-999.0,87,-99.99,,,0.20,Acu-Link.com,2013-01-16 00:37:00,
2013-01-15 18:52:00,42.3,38.1,30.04,NNW,337,12.5,-999.0,85,-99.99,,,0.20,Acu-Link.com,2013-01-16 00:52:00,
2013-01-15 19:07:00,42.3,38.4,30.04,NNW,337,7.3,-999.0,86,-99.99,,,0.20,Acu-Link.com,2013-01-16 01:07:00,
2013-01-15 19:22:00,42.3,38.4,30.05,WSW,247,6.3,-999.0,86,-99.99,,,0.20,Acu-Link.com,2013-01-16 01:22:00,
2013-01-15 19:37:00,42.3,38.1,30.05,West,270,8.3,-999.0,85,-99.99,,,0.20,Acu-Link.com,2013-01-16 01:37:00,
2013-01-15 19:53:00,42.3,38.1,30.05,NNW,337,9.9,-999.0,85,-99.99,,,0.20,Acu-Link.com,2013-01-16 01:53:00,
2013-01-15 20:08:00,42.1,38.2,30.05,NNW,337,9.4,-999.0,86,-99.99,,,0.20,Acu-Link.com,2013-01-16 02:08:00,
2013-01-15 20:23:00,41.9,37.7,30.06,West,270,6.8,-999.0,85,-99.99,,,0.20,Acu-Link.com,2013-01-16 02:23:00,
2013-01-15 20:38:00,41.7,37.5,30.07,NW,315,6.8,-999.0,85,-99.99,,,0.20,Acu-Link.com,2013-01-16 02:38:00,
2013-01-15 20:53:00,41.7,37.5,30.07,West,270,3.2,-999.0,85,-99.99,,,0.20,Acu-Link.com,2013-01-16 02:53:00,
2013-01-15 21:08:00,41.7,37.5,30.07,WNW,292,7.8,-999.0,85,-99.99,,,0.20,Acu-Link.com,2013-01-16 03:08:00,
2013-01-15 21:23:00,41.7,37.5,30.07,NW,315,4.2,-999.0,85,-99.99,,,0.20,Acu-Link.com,2013-01-16 03:23:00,
2013-01-15 21:39:00,41.7,37.5,30.07,NW,315,10.9,-999.0,85,-99.99,,,0.20,Acu-Link.com,2013-01-16 03:39:00,
2013-01-15 21:54:00,41.9,37.7,30.08,WNW,292,11.9,-999.0,85,-99.99,,,0.20,Acu-Link.com,2013-01-16 03:54:00,
2013-01-15 22:09:00,41.9,37.7,30.09,NNW,337,9.4,-999.0,85,-99.99,,,0.20,Acu-Link.com,2013-01-16 04:09:00,
2013-01-15 22:24:00,42.1,37.9,30.11,NNW,337,11.4,-999.0,85,-99.99,,,0.20,Acu-Link.com,2013-01-16 04:24:00,
2013-01-15 22:39:00,42.1,37.9,30.13,NW,315,8.3,-999.0,85,-99.99,,,0.20,Acu-Link.com,2013-01-16 04:39:00,
2013-01-15 22:54:00,42.1,37.6,30.13,West,270,7.8,-999.0,84,-99.99,,,0.20,Acu-Link.com,2013-01-16 04:54:00,
2013-01-15 23:09:00,42.3,37.5,30.12,NW,315,7.8,-999.0,83,-99.99,,,0.20,Acu-Link.com,2013-01-16 05:09:00,
2013-01-15 23:24:00,42.3,37.5,30.13,NW,315,5.8,-999.0,83,-99.99,,,0.20,Acu-Link.com,2013-01-16 05:24:00,
2013-01-15 23:40:00,42.3,36.9,30.13,NNW,337,8.9,-999.0,81,-99.99,,,0.20,Acu-Link.com,2013-01-16 05:40:00,
2013-01-15 23:55:00,42.3,36.9,30.15,WNW,292,8.9,-999.0,81,-99.99,,,0.20,Acu-Link.com,2013-01-16 05:55:00,